Location: Unspecified
(0.0000°N, 0.0000°E)
Time: 15:50:35
(UTC+02:00)

Cosmos 773 Rocket - Visible Passes

Search period start: 27 September 2016 00:00
Search period end: 07 October 2016 00:00
Orbit: 745 x 778 km, 74.1° (Epoch: 26 September)

Date Brightness Start Highest point End Pass type
(mag) Time Alt. Az. Time Alt. Az. Time Alt. Az.
27 Sep 3.8 06:16:52 27° NNW 06:19:41 80° WSW 06:24:49 10° S visible
28 Sep 4.9 05:41:05 45° E 05:41:05 45° E 05:45:39 10° SSE visible
29 Sep 6.7 05:04:39 14° ESE 05:04:39 14° ESE 05:05:36 10° SE visible
29 Sep 5.4 06:44:53 19° SW 06:44:53 19° SW 06:47:16 10° SSW visible
30 Sep 5.8 06:08:02 18° S 06:08:02 18° S 06:09:23 10° S visible
